Time,TemperatureF,DewpointF,PressureIn,WindDirection,WindDirectionDegrees,WindSpeedMPH,WindSpeedGustMPH,Humidity,HourlyPrecipIn,Conditions,Clouds,dailyrainin,SoftwareType,DateUTC
2013-06-09 00:02:00,69.0,59.0,-100.00,North,-999,-999.0,-999.0,69,0.00,,,-99.99,,2013-06-09 05:02:00,
2013-06-09 00:12:00,69.0,59.0,-100.00,North,-999,-999.0,-999.0,70,0.00,,,-99.99,,2013-06-09 05:12:00,
2013-06-09 00:22:00,67.0,63.0,-100.00,North,-999,-999.0,-999.0,85,0.06,,,-99.99,,2013-06-09 05:22:00,
2013-06-09 00:32:00,65.0,-99.9,-100.00,North,-999,-999.0,-999.0,-999,0.10,,,-99.99,,2013-06-09 05:32:00,
2013-06-09 00:42:00,64.0,-99.9,-100.00,North,-999,-999.0,-999.0,-999,0.07,,,-99.99,,2013-06-09 05:42:00,
2013-06-09 00:52:00,63.0,-99.9,-100.00,North,-999,-999.0,-999.0,-999,0.03,,,-99.99,,2013-06-09 05:52:00,
2013-06-09 01:02:00,63.0,-99.9,-100.00,North,-999,-999.0,-999.0,-999,0.03,,,-99.99,,2013-06-09 06:02:00,
2013-06-09 01:12:00,63.0,-99.9,-100.00,North,-999,-999.0,-999.0,-999,0.08,,,-99.99,,2013-06-09 06:12:00,
2013-06-09 01:22:00,63.0,-99.9,-100.00,North,-999,-999.0,-999.0,-999,0.00,,,-99.99,,2013-06-09 06:22:00,
2013-06-09 01:32:00,63.0,-99.9,-100.00,North,-999,-999.0,-999.0,-999,0.00,,,-99.99,,2013-06-09 06:32:00,
2013-06-09 01:42:00,63.0,-99.9,-100.00,North,-999,-999.0,-999.0,-999,0.00,,,-99.99,,2013-06-09 06:42:00,
2013-06-09 01:52:00,63.0,-99.9,-100.00,North,-999,-999.0,-999.0,-999,0.00,,,-99.99,,2013-06-09 06:52:00,
2013-06-09 02:02:00,63.0,-99.9,-100.00,North,-999,-999.0,-999.0,-999,0.01,,,-99.99,,2013-06-09 07:02:00,
2013-06-09 02:12:00,63.0,-99.9,-100.00,North,-999,-999.0,-999.0,-999,0.00,,,-99.99,,2013-06-09 07:12:00,
2013-06-09 02:22:00,63.0,-99.9,-100.00,North,-999,-999.0,-999.0,-999,0.00,,,-99.99,,2013-06-09 07:22:00,
2013-06-09 02:32:00,63.0,-99.9,-100.00,North,-999,-999.0,-999.0,-999,0.00,,,-99.99,,2013-06-09 07:32:00,
2013-06-09 02:42:00,63.0,-99.9,-100.00,North,-999,-999.0,-999.0,-999,0.00,,,-99.99,,2013-06-09 07:42:00,
2013-06-09 02:53:00,63.0,-99.9,-100.00,North,-999,-999.0,-999.0,-999,0.00,,,-99.99,,2013-06-09 07:53:00,
2013-06-09 03:02:00,63.0,-99.9,-100.00,North,-999,-999.0,-999.0,-999,0.00,,,-99.99,,2013-06-09 08:02:00,
2013-06-09 03:12:00,63.0,-99.9,-100.00,North,-999,-999.0,-999.0,-999,0.00,,,-99.99,,2013-06-09 08:12:00,
2013-06-09 03:22:00,63.0,-99.9,-100.00,North,-999,-999.0,-999.0,-999,0.00,,,-99.99,,2013-06-09 08:22:00,
2013-06-09 03:32:00,63.0,-99.9,-100.00,North,-999,-999.0,-999.0,-999,0.01,,,-99.99,,2013-06-09 08:32:00,
2013-06-09 03:42:00,63.0,-99.9,-100.00,North,-999,-999.0,-999.0,-999,0.01,,,-99.99,,2013-06-09 08:42:00,
2013-06-09 03:53:00,63.0,-99.9,-100.00,North,-999,-999.0,-999.0,-999,0.00,,,-99.99,,2013-06-09 08:53:00,
2013-06-09 04:02:00,63.0,-99.9,-100.00,North,-999,-999.0,-999.0,-999,0.00,,,-99.99,,2013-06-09 09:02:00,
2013-06-09 04:12:00,63.0,-99.9,-100.00,North,-999,-999.0,-999.0,-999,0.00,,,-99.99,,2013-06-09 09:12:00,
2013-06-09 04:22:00,63.0,-99.9,-100.00,North,-999,-999.0,-999.0,-999,0.00,,,-99.99,,2013-06-09 09:22:00,
2013-06-09 04:33:00,63.0,-99.9,-100.00,North,-999,-999.0,-999.0,-999,0.00,,,-99.99,,2013-06-09 09:33:00,
2013-06-09 04:43:00,63.0,-99.9,-100.00,North,-999,-999.0,-999.0,-999,0.00,,,-99.99,,2013-06-09 09:43:00,
2013-06-09 04:53:00,62.0,-99.9,-100.00,North,-999,-999.0,-999.0,-999,0.00,,,-99.99,,2013-06-09 09:53:00,
2013-06-09 05:03:00,62.0,-99.9,-100.00,North,-999,-999.0,-999.0,-999,0.00,,,-99.99,,2013-06-09 10:03:00,
2013-06-09 05:13:00,62.0,-99.9,-100.00,North,-999,-999.0,-999.0,-999,0.00,,,-99.99,,2013-06-09 10:13:00,
2013-06-09 05:23:00,62.0,-99.9,-100.00,North,-999,-999.0,-999.0,-999,0.00,,,-99.99,,2013-06-09 10:23:00,
2013-06-09 05:33:00,62.0,-99.9,-100.00,North,-999,-999.0,-999.0,-999,0.03,,,-99.99,,2013-06-09 10:33:00,
2013-06-09 05:43:00,62.0,-99.9,-100.00,North,-999,-999.0,-999.0,-999,0.01,,,-99.99,,2013-06-09 10:43:00,
2013-06-09 05:53:00,62.0,-99.9,-100.00,North,-999,-999.0,-999.0,-999,0.01,,,-99.99,,2013-06-09 10:53:00,
2013-06-09 06:02:00,62.0,-99.9,-100.00,North,-999,-999.0,-999.0,-999,0.01,,,-99.99,,2013-06-09 11:02:00,
2013-06-09 06:12:00,62.0,-99.9,-100.00,North,-999,-999.0,-999.0,-999,0.01,,,-99.99,,2013-06-09 11:12:00,
2013-06-09 06:22:00,62.0,-99.9,-100.00,North,-999,-999.0,-999.0,-999,0.03,,,-99.99,,2013-06-09 11:22:00,
2013-06-09 06:32:00,62.0,-99.9,-100.00,North,-999,-999.0,-999.0,-999,0.01,,,-99.99,,2013-06-09 11:32:00,
2013-06-09 06:42:00,62.0,-99.9,-100.00,North,-999,-999.0,-999.0,-999,0.01,,,-99.99,,2013-06-09 11:42:00,
2013-06-09 06:53:00,62.0,-99.9,-100.00,North,-999,-999.0,-999.0,-999,0.01,,,-99.99,,2013-06-09 11:53:00,
2013-06-09 07:03:00,62.0,-99.9,-100.00,North,-999,-999.0,-999.0,-999,0.03,,,-99.99,,2013-06-09 12:03:00,
2013-06-09 07:12:00,63.0,-99.9,-100.00,North,-999,-999.0,-999.0,-999,0.01,,,-99.99,,2013-06-09 12:12:00,
2013-06-09 07:22:00,63.0,-99.9,-100.00,North,-999,-999.0,-999.0,-999,0.01,,,-99.99,,2013-06-09 12:22:00,
2013-06-09 07:32:00,63.0,-99.9,-100.00,North,-999,-999.0,-999.0,-999,0.01,,,-99.99,,2013-06-09 12:32:00,
2013-06-09 07:42:00,63.0,-99.9,-100.00,North,-999,-999.0,-999.0,-999,0.01,,,-99.99,,2013-06-09 12:42:00,
2013-06-09 07:53:00,63.0,-99.9,-100.00,North,-999,-999.0,-999.0,-999,0.00,,,-99.99,,2013-06-09 12:53:00,
2013-06-09 08:02:00,63.0,-99.9,-100.00,North,-999,-999.0,-999.0,-999,0.00,,,-99.99,,2013-06-09 13:02:00,
2013-06-09 08:13:00,63.0,-99.9,-100.00,North,-999,-999.0,-999.0,-999,0.00,,,-99.99,,2013-06-09 13:13:00,
2013-06-09 08:23:00,64.0,-99.9,-100.00,North,-999,-999.0,-999.0,-999,0.00,,,-99.99,,2013-06-09 13:23:00,
2013-06-09 08:32:00,63.0,-99.9,-100.00,North,-999,-999.0,-999.0,-999,0.00,,,-99.99,,2013-06-09 13:32:00,
2013-06-09 08:43:00,63.0,-99.9,-100.00,North,-999,-999.0,-999.0,-999,0.00,,,-99.99,,2013-06-09 13:43:00,
2013-06-09 08:52:00,64.0,-99.9,-100.00,North,-999,-999.0,-999.0,-999,0.00,,,-99.99,,2013-06-09 13:52:00,
2013-06-09 09:02:00,65.0,-99.9,-100.00,North,-999,-999.0,-999.0,-999,0.00,,,-99.99,,2013-06-09 14:02:00,
2013-06-09 09:12:00,65.0,-99.9,-100.00,North,-999,-999.0,-999.0,-999,0.00,,,-99.99,,2013-06-09 14:12:00,
2013-06-09 09:22:00,65.0,-99.9,-100.00,North,-999,-999.0,-999.0,-999,0.00,,,-99.99,,2013-06-09 14:22:00,
2013-06-09 09:32:00,66.0,-99.9,-100.00,North,-999,-999.0,-999.0,-999,0.00,,,-99.99,,2013-06-09 14:32:00,
2013-06-09 09:43:00,67.0,-99.9,-100.00,North,-999,-999.0,-999.0,-999,0.00,,,-99.99,,2013-06-09 14:43:00,
2013-06-09 09:52:00,67.0,-99.9,-100.00,North,-999,-999.0,-999.0,-999,0.00,,,-99.99,,2013-06-09 14:52:00,
2013-06-09 10:02:00,67.0,-99.9,-100.00,North,-999,-999.0,-999.0,-999,0.00,,,-99.99,,2013-06-09 15:02:00,
2013-06-09 10:12:00,67.0,-99.9,-100.00,North,-999,-999.0,-999.0,-999,0.00,,,-99.99,,2013-06-09 15:12:00,
2013-06-09 10:22:00,67.0,-99.9,-100.00,North,-999,-999.0,-999.0,-999,0.00,,,-99.99,,2013-06-09 15:22:00,
2013-06-09 10:33:00,67.0,-99.9,-100.00,North,-999,-999.0,-999.0,-999,0.00,,,-99.99,,2013-06-09 15:33:00,
2013-06-09 10:44:00,69.0,-99.9,-100.00,North,-999,-999.0,-999.0,-999,0.00,,,-99.99,,2013-06-09 15:44:00,
2013-06-09 10:53:00,69.0,-99.9,-100.00,North,-999,-999.0,-999.0,-999,0.00,,,-99.99,,2013-06-09 15:53:00,
2013-06-09 11:03:00,69.0,-99.9,-100.00,North,-999,-999.0,-999.0,-999,0.00,,,-99.99,,2013-06-09 16:03:00,
2013-06-09 11:13:00,70.0,-99.9,-100.00,North,-999,-999.0,-999.0,-999,0.00,,,-99.99,,2013-06-09 16:13:00,
2013-06-09 11:23:00,71.0,69.0,-100.00,North,-999,-999.0,-999.0,94,0.00,,,-99.99,,2013-06-09 16:23:00,
2013-06-09 11:33:00,71.0,65.0,-100.00,North,-999,-999.0,-999.0,84,0.00,,,-99.99,,2013-06-09 16:33:00,
2013-06-09 11:42:00,71.0,65.0,-100.00,North,-999,-999.0,-999.0,84,0.00,,,-99.99,,2013-06-09 16:42:00,
2013-06-09 11:53:00,73.0,65.0,-100.00,North,-999,-999.0,-999.0,75,0.00,,,-99.99,,2013-06-09 16:53:00,
2013-06-09 12:02:00,73.0,63.0,-100.00,North,-999,-999.0,-999.0,71,0.00,,,-99.99,,2013-06-09 17:02:00,
2013-06-09 12:12:00,73.0,63.0,-100.00,North,-999,-999.0,-999.0,71,0.00,,,-99.99,,2013-06-09 17:12:00,
2013-06-09 12:22:00,73.0,63.0,-100.00,North,-999,-999.0,-999.0,71,0.00,,,-99.99,,2013-06-09 17:22:00,
2013-06-09 12:32:00,72.0,63.0,-100.00,North,-999,-999.0,-999.0,72,0.00,,,-99.99,,2013-06-09 17:32:00,
2013-06-09 12:42:00,72.0,62.0,-100.00,North,-999,-999.0,-999.0,69,0.00,,,-99.99,,2013-06-09 17:42:00,
2013-06-09 12:52:00,71.0,61.0,-100.00,North,-999,-999.0,-999.0,70,0.00,,,-99.99,,2013-06-09 17:52:00,
2013-06-09 13:02:00,71.0,61.0,-100.00,North,-999,-999.0,-999.0,70,0.00,,,-99.99,,2013-06-09 18:02:00,
2013-06-09 13:12:00,71.0,61.0,-100.00,North,-999,-999.0,-999.0,71,0.00,,,-99.99,,2013-06-09 18:12:00,
2013-06-09 13:21:00,71.0,62.0,-100.00,North,-999,-999.0,-999.0,73,0.00,,,-99.99,,2013-06-09 18:21:00,
2013-06-09 13:32:00,70.0,61.0,-100.00,North,-999,-999.0,-999.0,73,0.00,,,-99.99,,2013-06-09 18:32:00,
2013-06-09 13:42:00,72.0,60.0,-100.00,North,-999,-999.0,-999.0,66,0.00,,,-99.99,,2013-06-09 18:42:00,
2013-06-09 13:52:00,71.0,61.0,-100.00,North,-999,-999.0,-999.0,69,0.00,,,-99.99,,2013-06-09 18:52:00,
2013-06-09 14:02:00,71.0,61.0,-100.00,North,-999,-999.0,-999.0,69,0.00,,,-99.99,,2013-06-09 19:02:00,
2013-06-09 14:12:00,72.0,61.0,-100.00,North,-999,-999.0,-999.0,67,0.00,,,-99.99,,2013-06-09 19:12:00,
2013-06-09 14:22:00,71.0,60.0,-100.00,North,-999,-999.0,-999.0,68,0.00,,,-99.99,,2013-06-09 19:22:00,
2013-06-09 14:32:00,71.0,62.0,-100.00,North,-999,-999.0,-999.0,72,0.00,,,-99.99,,2013-06-09 19:32:00,
2013-06-09 14:42:00,71.0,62.0,-100.00,North,-999,-999.0,-999.0,73,0.00,,,-99.99,,2013-06-09 19:42:00,
2013-06-09 14:52:00,71.0,62.0,-100.00,North,-999,-999.0,-999.0,73,0.00,,,-99.99,,2013-06-09 19:52:00,
2013-06-09 15:02:00,71.0,62.0,-100.00,North,-999,-999.0,-999.0,73,0.00,,,-99.99,,2013-06-09 20:02:00,
2013-06-09 15:12:00,71.0,62.0,-100.00,North,-999,-999.0,-999.0,75,0.00,,,-99.99,,2013-06-09 20:12:00,
2013-06-09 15:22:00,71.0,63.0,-100.00,North,-999,-999.0,-999.0,76,0.00,,,-99.99,,2013-06-09 20:22:00,
2013-06-09 15:32:00,69.0,63.0,-100.00,North,-999,-999.0,-999.0,80,0.00,,,-99.99,,2013-06-09 20:32:00,
2013-06-09 15:42:00,69.0,63.0,-100.00,North,-999,-999.0,-999.0,80,0.00,,,-99.99,,2013-06-09 20:42:00,
2013-06-09 15:52:00,68.0,62.0,-100.00,North,-999,-999.0,-999.0,81,0.00,,,-99.99,,2013-06-09 20:52:00,
2013-06-09 16:02:00,68.0,64.0,-100.00,North,-999,-999.0,-999.0,88,0.00,,,-99.99,,2013-06-09 21:02:00,
2013-06-09 16:12:00,68.0,64.0,-100.00,North,-999,-999.0,-999.0,87,0.00,,,-99.99,,2013-06-09 21:12:00,
2013-06-09 16:22:00,68.0,64.0,-100.00,North,-999,-999.0,-999.0,87,0.00,,,-99.99,,2013-06-09 21:22:00,
2013-06-09 16:33:00,68.0,65.0,-100.00,North,-999,-999.0,-999.0,89,0.00,,,-99.99,,2013-06-09 21:33:00,
2013-06-09 16:43:00,68.0,65.0,-100.00,North,-999,-999.0,-999.0,89,0.00,,,-99.99,,2013-06-09 21:43:00,
2013-06-09 16:53:00,68.0,66.0,-100.00,North,-999,-999.0,-999.0,94,0.00,,,-99.99,,2013-06-09 21:53:00,
2013-06-09 17:02:00,68.0,66.0,-100.00,North,-999,-999.0,-999.0,93,0.00,,,-99.99,,2013-06-09 22:02:00,
2013-06-09 17:13:00,68.0,66.0,-100.00,North,-999,-999.0,-999.0,93,0.00,,,-99.99,,2013-06-09 22:13:00,
2013-06-09 17:23:00,69.0,65.0,-100.00,North,-999,-999.0,-999.0,85,0.00,,,-99.99,,2013-06-09 22:23:00,
2013-06-09 17:33:00,69.0,65.0,-100.00,North,-999,-999.0,-999.0,85,0.00,,,-99.99,,2013-06-09 22:33:00,
2013-06-09 17:42:00,69.0,66.0,-100.00,North,-999,-999.0,-999.0,88,0.00,,,-99.99,,2013-06-09 22:42:00,
2013-06-09 17:52:00,69.0,65.0,-100.00,North,-999,-999.0,-999.0,87,0.00,,,-99.99,,2013-06-09 22:52:00,
2013-06-09 18:02:00,69.0,65.0,-100.00,North,-999,-999.0,-999.0,87,0.00,,,-99.99,,2013-06-09 23:02:00,
2013-06-09 18:12:00,69.0,65.0,-100.00,North,-999,-999.0,-999.0,89,0.00,,,-99.99,,2013-06-09 23:12:00,
2013-06-09 18:22:00,68.0,65.0,-100.00,North,-999,-999.0,-999.0,90,0.00,,,-99.99,,2013-06-09 23:22:00,
2013-06-09 18:32:00,70.0,64.0,-100.00,North,-999,-999.0,-999.0,82,0.00,,,-99.99,,2013-06-09 23:32:00,
2013-06-09 18:42:00,70.0,64.0,-100.00,North,-999,-999.0,-999.0,82,0.00,,,-99.99,,2013-06-09 23:42:00,
2013-06-09 18:52:00,68.0,65.0,-100.00,North,-999,-999.0,-999.0,91,0.00,,,-99.99,,2013-06-09 23:52:00,
2013-06-09 19:03:00,67.0,-99.9,-100.00,North,-999,-999.0,-999.0,-999,0.00,,,-99.99,,2013-06-10 00:03:00,
2013-06-09 19:13:00,65.0,-99.9,-100.00,North,-999,-999.0,-999.0,-999,0.00,,,-99.99,,2013-06-10 00:13:00,
2013-06-09 19:22:00,65.0,-99.9,-100.00,North,-999,-999.0,-999.0,-999,0.00,,,-99.99,,2013-06-10 00:22:00,
2013-06-09 19:32:00,67.0,-99.9,-100.00,North,-999,-999.0,-999.0,-999,0.00,,,-99.99,,2013-06-10 00:32:00,
2013-06-09 19:42:00,67.0,-99.9,-100.00,North,-999,-999.0,-999.0,-999,0.00,,,-99.99,,2013-06-10 00:42:00,
2013-06-09 19:52:00,67.0,-99.9,-100.00,North,-999,-999.0,-999.0,-999,0.00,,,-99.99,,2013-06-10 00:52:00,
2013-06-09 20:03:00,67.0,-99.9,-100.00,North,-999,-999.0,-999.0,-999,0.00,,,-99.99,,2013-06-10 01:03:00,
2013-06-09 20:12:00,66.0,-99.9,-100.00,North,-999,-999.0,-999.0,-999,0.00,,,-99.99,,2013-06-10 01:12:00,
2013-06-09 20:22:00,66.0,-99.9,-100.00,North,-999,-999.0,-999.0,-999,0.00,,,-99.99,,2013-06-10 01:22:00,
2013-06-09 20:32:00,66.0,-99.9,-100.00,North,-999,-999.0,-999.0,-999,0.00,,,-99.99,,2013-06-10 01:32:00,
2013-06-09 20:43:00,66.0,-99.9,-100.00,North,-999,-999.0,-999.0,-999,0.00,,,-99.99,,2013-06-10 01:43:00,
2013-06-09 20:52:00,66.0,-99.9,-100.00,North,-999,-999.0,-999.0,-999,0.00,,,-99.99,,2013-06-10 01:52:00,
2013-06-09 21:02:00,66.0,-99.9,-100.00,North,-999,-999.0,-999.0,-999,0.00,,,-99.99,,2013-06-10 02:02:00,
2013-06-09 21:12:00,65.0,-99.9,-100.00,North,-999,-999.0,-999.0,-999,0.00,,,-99.99,,2013-06-10 02:12:00,
2013-06-09 21:22:00,65.0,-99.9,-100.00,North,-999,-999.0,-999.0,-999,0.00,,,-99.99,,2013-06-10 02:22:00,
2013-06-09 21:32:00,65.0,-99.9,-100.00,North,-999,-999.0,-999.0,-999,0.00,,,-99.99,,2013-06-10 02:32:00,
2013-06-09 21:42:00,65.0,-99.9,-100.00,North,-999,-999.0,-999.0,-999,0.00,,,-99.99,,2013-06-10 02:42:00,
2013-06-09 21:52:00,65.0,-99.9,-100.00,North,-999,-999.0,-999.0,-999,0.00,,,-99.99,,2013-06-10 02:52:00,
2013-06-09 22:02:00,65.0,-99.9,-100.00,North,-999,-999.0,-999.0,-999,0.00,,,-99.99,,2013-06-10 03:02:00,
2013-06-09 22:12:00,65.0,-99.9,-100.00,North,-999,-999.0,-999.0,-999,0.00,,,-99.99,,2013-06-10 03:12:00,
2013-06-09 22:22:00,65.0,-99.9,-100.00,North,-999,-999.0,-999.0,-999,0.00,,,-99.99,,2013-06-10 03:22:00,
2013-06-09 22:33:00,65.0,-99.9,-100.00,North,-999,-999.0,-999.0,-999,0.00,,,-99.99,,2013-06-10 03:33:00,
2013-06-09 22:43:00,65.0,-99.9,-100.00,North,-999,-999.0,-999.0,-999,0.00,,,-99.99,,2013-06-10 03:43:00,
2013-06-09 22:53:00,65.0,-99.9,-100.00,North,-999,-999.0,-999.0,-999,0.00,,,-99.99,,2013-06-10 03:53:00,
2013-06-09 23:03:00,65.0,-99.9,-100.00,North,-999,-999.0,-999.0,-999,0.00,,,-99.99,,2013-06-10 04:03:00,
2013-06-09 23:13:00,65.0,-99.9,-100.00,North,-999,-999.0,-999.0,-999,0.00,,,-99.99,,2013-06-10 04:13:00,
2013-06-09 23:23:00,65.0,-99.9,-100.00,North,-999,-999.0,-999.0,-999,0.00,,,-99.99,,2013-06-10 04:23:00,
2013-06-09 23:33:00,65.0,-99.9,-100.00,North,-999,-999.0,-999.0,-999,0.00,,,-99.99,,2013-06-10 04:33:00,
2013-06-09 23:42:00,65.0,-99.9,-100.00,North,-999,-999.0,-999.0,-999,0.00,,,-99.99,,2013-06-10 04:42:00,
2013-06-09 23:53:00,65.0,-99.9,-100.00,North,-999,-999.0,-999.0,-999,0.00,,,-99.99,,2013-06-10 04:53:00,